Flag for Germany Weather for the Past 2 Weeks in Neunkirchen (Saar), Saarland, Germany

Now
55 °F

Partly sunny.


Feels Like: 54 °F
Forecast: 39 / 54 °F
Wind: 7 mph from Northwest

Location: Saarbruecken / Ensheim

Current Time: Apr 30, 2016 at 3:09:41 PM

Latest Report: Apr 30, 2016 at 2:20 PM


Visibility: N/A

Pressure: 29.98 "Hg

Humidity: 47%

Dew Point: 36 °F

Location of Neunkirchen (Saar)Location

Historic Weather in Neunkirchen (Saar) — Graph

°F

Neunkirchen (Saar) Temperature Yesterday

Maximum temperature yesterday: 54 °F (at 4:50 PM)
Minimum temperature yesterday: 32 °F (at 5:20 AM)
Average temperature yesterday: 44 °F

High & Low Weather Summary for the Past Weeks

 TemperatureHumidityPressure
High70 °F (Apr 21, 4:50 PM)100% (Apr 25, 1:20 AM)30.39 "Hg (Apr 25, 1:20 AM)
Low28 °F (Apr 24, 6:20 AM)20% (Apr 21, 5:50 PM)29.56 "Hg (Apr 26, 3:20 AM)
Average45 °F69%29.96 "Hg
* Reported Apr 15 1:20 PM — Apr 30 1:50 PM, Neunkirchen (Saar), Weather by CustomWeather, © 2016

Note: Actual official high and low records may vary slightly from our data, if they occured in-between our weather recording intervals... More about our weather records

Advertising

Neunkirchen (Saar) Weather History for the Previous 24 Hours

Scroll right to see more
 ConditionsComfort  
Time TempWeatherWind HumidityBarometerVisibility
1:50 PM
Sat, Apr 30
55 °FLight rain. Partly sunny.5 mph41%29.98 "HgN/A
1:20 PM55 °FPartly sunny.3 mph47%30.01 "HgN/A
12:50 PM54 °FPartly sunny.5 mph44%30.01 "HgN/A
12:20 PM54 °FPartly sunny.3 mph47%30.01 "HgN/A
11:20 AM50 °FSunny.2 mph58%30.01 "Hg10 mi
10:20 AM50 °FSunny.1 mph54%30.01 "Hg10 mi
9:50 AM48 °FPassing clouds.5 mph58%30.01 "HgN/A
9:20 AM48 °FPassing clouds.5 mph58%30.01 "HgN/A
8:50 AM48 °FPassing clouds.3 mph58%30.01 "HgN/A
8:20 AM46 °FSunny.2 mph66%30.01 "Hg10 mi
7:50 AM43 °FSunny.3 mph71%30.01 "Hg10 mi
7:20 AM41 °FSunny.1 mph76%30.01 "Hg10 mi
6:50 AM39 °FClear.2 mph70%30.01 "Hg10 mi
6:20 AM41 °FClear.1 mph66%30.01 "Hg10 mi
5:50 AM43 °FPassing clouds.3 mph66%30.01 "HgN/A
5:20 AM45 °FClear.5 mph61%30.01 "Hg10 mi
4:50 AM43 °FClear.5 mph66%30.01 "Hg10 mi
4:20 AM45 °FPassing clouds.5 mph61%30.01 "HgN/A
3:50 AM45 °FClear.1 mph61%30.01 "Hg10 mi
3:20 AM45 °FClear.1 mph61%30.01 "Hg10 mi
2:50 AM43 °FClear.2 mph66%30.01 "Hg10 mi
1:50 AM43 °FClear.2 mph66%30.01 "Hg10 mi
1:20 AM43 °FClear.2 mph61%30.01 "Hg10 mi
12:50 AM43 °FClear.1 mph66%30.01 "Hg10 mi
12:20 AM43 °FClear.2 mph66%30.01 "Hg10 mi
11:50 PM
Fri, Apr 29
41 °FClear.2 mph70%30.01 "Hg10 mi
11:20 PM43 °FClear.3 mph66%30.01 "Hg10 mi
10:50 PM43 °FClear.3 mph66%30.01 "Hg10 mi
10:20 PM43 °FClear.3 mph66%30.01 "Hg10 mi
9:50 PM45 °FClear.3 mph66%30.01 "Hg10 mi
9:20 PM46 °FSunny.5 mph53%30.01 "Hg10 mi
8:50 PM48 °FSunny.5 mph50%30.01 "Hg10 mi
8:20 PM50 °FSunny.6 mph47%30.01 "Hg10 mi
7:50 PM50 °FPassing clouds.6 mph47%30.01 "HgN/A
7:20 PM52 °FSunny.9 mph44%30.01 "Hg10 mi
6:50 PM52 °FPassing clouds.10 mph44%30.01 "HgN/A
6:20 PM54 °FPassing clouds.8 mph41%30.01 "HgN/A
5:50 PM52 °FSunny.13 mph41%30.04 "Hg10 mi
5:20 PM52 °FPassing clouds.12 mph41%30.04 "HgN/A
4:50 PM54 °FPassing clouds.13 mph44%30.04 "HgN/A
4:20 PM52 °FPassing clouds.14 mph44%30.04 "HgN/A
3:50 PM52 °FPassing clouds.13 mph41%30.04 "HgN/A
3:20 PM52 °FPassing clouds.13 mph41%30.04 "HgN/A
Weather by CustomWeather, © 2016

See weather overviewHow to use our weather pages